Year,Month,Day,Hour,Minute,Value (Times are PST for temperature in C)
2018,04,22,00,00,4.80
2018,04,22,00,01,4.80
2018,04,22,00,02,4.80
2018,04,22,00,03,4.80
2018,04,22,00,04,4.80
2018,04,22,00,05,4.70
2018,04,22,00,06,4.70
2018,04,22,00,07,4.70
2018,04,22,00,08,4.70
2018,04,22,00,09,4.70
2018,04,22,00,10,4.70
2018,04,22,00,11,4.70
2018,04,22,00,12,4.70
2018,04,22,00,13,4.70
2018,04,22,00,14,4.60
2018,04,22,00,15,4.60
2018,04,22,00,16,4.60
2018,04,22,00,17,4.60
2018,04,22,00,18,4.60
2018,04,22,00,19,4.60
2018,04,22,00,20,4.60
2018,04,22,00,21,4.50
2018,04,22,00,22,4.50
2018,04,22,00,23,4.50
2018,04,22,00,24,4.50
2018,04,22,00,25,4.40
2018,04,22,00,26,4.40
2018,04,22,00,27,4.40
2018,04,22,00,28,4.40
2018,04,22,00,29,4.40
2018,04,22,00,30,4.30
2018,04,22,00,31,4.30
2018,04,22,00,32,4.30
2018,04,22,00,33,4.30
2018,04,22,00,34,4.30
2018,04,22,00,35,4.30
2018,04,22,00,36,4.30
2018,04,22,00,37,4.30
2018,04,22,00,38,4.20
2018,04,22,00,39,4.20
2018,04,22,00,40,4.20
2018,04,22,00,41,4.20
2018,04,22,00,42,4.20
2018,04,22,00,43,4.20
2018,04,22,00,44,4.20
2018,04,22,00,45,4.20
2018,04,22,00,46,4.20
2018,04,22,00,47,4.10
2018,04,22,00,48,4.10
2018,04,22,00,49,4.10
2018,04,22,00,50,4.10
2018,04,22,00,51,4.10
2018,04,22,00,52,4.10
2018,04,22,00,53,4.10
2018,04,22,00,54,4.10
2018,04,22,00,55,4.10
2018,04,22,00,56,4.00
2018,04,22,00,57,4.00
2018,04,22,00,58,4.00
2018,04,22,00,59,4.00
2018,04,22,01,00,4.00
2018,04,22,01,01,4.10
2018,04,22,01,02,4.10
2018,04,22,01,03,4.20
2018,04,22,01,04,4.30
2018,04,22,01,05,4.40
2018,04,22,01,06,4.40
2018,04,22,01,07,4.50
2018,04,22,01,08,4.60
2018,04,22,01,09,4.70
2018,04,22,01,10,4.70
2018,04,22,01,11,4.80
2018,04,22,01,12,4.80
2018,04,22,01,13,4.80
2018,04,22,01,14,4.80
2018,04,22,01,15,4.80
2018,04,22,01,16,4.90
2018,04,22,01,17,4.90
2018,04,22,01,18,4.90
2018,04,22,01,19,4.90
2018,04,22,01,20,4.80
2018,04,22,01,21,4.80
2018,04,22,01,22,4.80
2018,04,22,01,23,4.70
2018,04,22,01,24,4.70
2018,04,22,01,25,4.70
2018,04,22,01,26,4.60
2018,04,22,01,27,4.60
2018,04,22,01,28,4.60
2018,04,22,01,29,4.50
2018,04,22,01,30,4.50
2018,04,22,01,31,4.40
2018,04,22,01,32,4.40
2018,04,22,01,33,4.30
2018,04,22,01,34,4.30
2018,04,22,01,35,4.20
2018,04,22,01,36,4.20
2018,04,22,01,37,4.20
2018,04,22,01,38,4.20
2018,04,22,01,39,4.20
2018,04,22,01,40,4.20
2018,04,22,01,41,4.30
2018,04,22,01,42,4.30
2018,04,22,01,43,4.30
2018,04,22,01,44,4.30
2018,04,22,01,45,4.40
2018,04,22,01,46,4.50
2018,04,22,01,47,4.50
2018,04,22,01,48,4.60
2018,04,22,01,49,4.60
2018,04,22,01,50,4.70
2018,04,22,01,51,4.70
2018,04,22,01,52,4.80
2018,04,22,01,53,4.80
2018,04,22,01,54,4.80
2018,04,22,01,55,4.90
2018,04,22,01,56,4.90
2018,04,22,01,57,5.00
2018,04,22,01,58,5.10
2018,04,22,01,59,5.10
2018,04,22,02,00,5.10
2018,04,22,02,01,5.10
2018,04,22,02,02,5.10
2018,04,22,02,03,5.00
2018,04,22,02,04,5.00
2018,04,22,02,05,5.00
2018,04,22,02,06,4.90
2018,04,22,02,07,4.90
2018,04,22,02,08,4.90
2018,04,22,02,09,4.90
2018,04,22,02,10,4.90
2018,04,22,02,11,4.90
2018,04,22,02,12,4.90
2018,04,22,02,13,4.90
2018,04,22,02,14,4.90
2018,04,22,02,15,4.90
2018,04,22,02,16,4.90
2018,04,22,02,17,5.00
2018,04,22,02,18,5.00
2018,04,22,02,19,5.10
2018,04,22,02,20,5.20
2018,04,22,02,21,5.20
2018,04,22,02,22,5.30
2018,04,22,02,23,5.30
2018,04,22,02,24,5.30
2018,04,22,02,25,5.30
2018,04,22,02,26,5.30
2018,04,22,02,27,5.40
2018,04,22,02,28,5.40
2018,04,22,02,29,5.40
2018,04,22,02,30,5.40
2018,04,22,02,31,5.50
2018,04,22,02,32,5.50
2018,04,22,02,33,5.50
2018,04,22,02,34,5.50
2018,04,22,02,35,5.60
2018,04,22,02,36,5.60
2018,04,22,02,37,5.60
2018,04,22,02,38,5.70
2018,04,22,02,39,5.70
2018,04,22,02,40,5.70
2018,04,22,02,41,5.70
2018,04,22,02,42,5.80
2018,04,22,02,43,5.80
2018,04,22,02,44,5.90
2018,04,22,02,45,5.90
2018,04,22,02,46,6.00
2018,04,22,02,47,6.00
2018,04,22,02,48,6.10
2018,04,22,02,49,6.10
2018,04,22,02,50,6.10
2018,04,22,02,51,6.10
2018,04,22,02,52,6.10
2018,04,22,02,53,6.10
2018,04,22,02,54,6.10
2018,04,22,02,55,6.10
2018,04,22,02,56,6.10
2018,04,22,02,57,6.10
2018,04,22,02,58,6.10
2018,04,22,02,59,6.10
2018,04,22,03,00,6.10
2018,04,22,03,01,6.00
2018,04,22,03,02,6.00
2018,04,22,03,03,6.00
2018,04,22,03,06,5.90
2018,04,22,03,07,5.80
2018,04,22,03,08,5.80
2018,04,22,03,09,5.70
2018,04,22,03,10,5.70
2018,04,22,03,11,5.60
2018,04,22,03,12,5.50
2018,04,22,03,13,5.50
2018,04,22,03,14,5.40
2018,04,22,03,15,5.30
2018,04,22,03,16,5.20
2018,04,22,03,17,5.20
2018,04,22,03,18,5.10
2018,04,22,03,19,5.10
2018,04,22,03,20,5.10
2018,04,22,03,21,5.10
2018,04,22,03,22,5.10
2018,04,22,03,23,5.10
2018,04,22,03,24,5.10
2018,04,22,03,25,5.20
2018,04,22,03,26,5.20
2018,04,22,03,27,5.20
2018,04,22,03,28,5.20
2018,04,22,03,29,5.10
2018,04,22,03,30,5.10
2018,04,22,03,31,5.10
2018,04,22,03,32,5.10
2018,04,22,03,33,5.10
2018,04,22,03,34,5.10
2018,04,22,03,35,5.00
2018,04,22,03,36,5.00
2018,04,22,03,37,5.00
2018,04,22,03,38,5.00
2018,04,22,03,39,4.90
2018,04,22,03,40,4.90
2018,04,22,03,41,4.80
2018,04,22,03,42,4.80
2018,04,22,03,43,4.70
2018,04,22,03,44,4.70
2018,04,22,03,45,4.60
2018,04,22,03,46,4.60
2018,04,22,03,47,4.50
2018,04,22,03,48,4.50
2018,04,22,03,49,4.40
2018,04,22,03,50,4.30
2018,04,22,03,51,4.30
2018,04,22,03,52,4.20
2018,04,22,03,53,4.20
2018,04,22,03,54,4.10
2018,04,22,03,55,4.10
2018,04,22,03,56,4.00
2018,04,22,03,57,4.00
2018,04,22,03,58,3.90
2018,04,22,03,59,3.90
2018,04,22,04,00,3.90
2018,04,22,04,01,3.80
2018,04,22,04,02,3.80
2018,04,22,04,03,3.80
2018,04,22,04,04,3.80
2018,04,22,04,05,3.70
2018,04,22,04,06,3.70
2018,04,22,04,07,3.70
2018,04,22,04,08,3.70
2018,04,22,04,09,3.70
2018,04,22,04,10,3.70
2018,04,22,04,11,3.70
2018,04,22,04,12,3.60
2018,04,22,04,13,3.60
2018,04,22,04,14,3.60
2018,04,22,04,15,3.60
2018,04,22,04,16,3.60
2018,04,22,04,17,3.60
2018,04,22,04,18,3.60
2018,04,22,04,19,3.60
2018,04,22,04,20,3.60
2018,04,22,04,21,3.60
2018,04,22,04,22,3.60
2018,04,22,04,23,3.60
2018,04,22,04,24,3.60
2018,04,22,04,25,3.60
2018,04,22,04,26,3.60
2018,04,22,04,27,3.60
2018,04,22,04,28,3.50
2018,04,22,04,29,3.50
2018,04,22,04,30,3.50
2018,04,22,04,31,3.50
2018,04,22,04,32,3.50
2018,04,22,04,33,3.50
2018,04,22,04,34,3.40
2018,04,22,04,35,3.40
2018,04,22,04,36,3.40
2018,04,22,04,37,3.40
2018,04,22,04,38,3.40
2018,04,22,04,39,3.40
2018,04,22,04,40,3.40
2018,04,22,04,41,3.40
2018,04,22,04,42,3.40
2018,04,22,04,43,3.40
2018,04,22,04,44,3.40
2018,04,22,04,45,3.30
2018,04,22,04,46,3.40
2018,04,22,04,47,3.30
2018,04,22,04,48,3.30
2018,04,22,04,49,3.30
2018,04,22,04,50,3.30
2018,04,22,04,51,3.30
2018,04,22,04,52,3.30
2018,04,22,04,53,3.30
2018,04,22,04,54,3.30
2018,04,22,04,55,3.30
2018,04,22,04,56,3.20
2018,04,22,04,57,3.20
2018,04,22,04,58,3.20
2018,04,22,04,59,3.20
2018,04,22,05,00,3.10
2018,04,22,05,01,3.10
2018,04,22,05,02,3.10
2018,04,22,05,03,3.10
2018,04,22,05,04,3.10
2018,04,22,05,05,3.10
2018,04,22,05,06,3.00
2018,04,22,05,07,3.00
2018,04,22,05,08,3.00
2018,04,22,05,09,3.00
2018,04,22,05,10,3.00
2018,04,22,05,11,2.90
2018,04,22,05,12,2.90
2018,04,22,05,13,2.90
2018,04,22,05,14,2.90
2018,04,22,05,15,2.80
2018,04,22,05,16,2.80
2018,04,22,05,17,2.80
2018,04,22,05,18,2.80
2018,04,22,05,19,2.80
2018,04,22,05,20,2.80
2018,04,22,05,21,2.70
2018,04,22,05,22,2.70
2018,04,22,05,23,2.70
2018,04,22,05,24,2.70
2018,04,22,05,25,2.70
2018,04,22,05,26,2.70
2018,04,22,05,27,2.70
2018,04,22,05,28,2.70
2018,04,22,05,29,2.70
2018,04,22,05,30,2.70
2018,04,22,05,31,2.70
2018,04,22,05,32,2.70
2018,04,22,05,33,2.60
2018,04,22,05,34,2.60
2018,04,22,05,35,2.60
2018,04,22,05,36,2.60
2018,04,22,05,37,2.60
2018,04,22,05,38,2.60
2018,04,22,05,39,2.60
2018,04,22,05,40,2.60
2018,04,22,05,41,2.60
2018,04,22,05,42,2.60
2018,04,22,05,43,2.60
2018,04,22,05,44,2.60
2018,04,22,05,45,2.60
2018,04,22,05,46,2.60
2018,04,22,05,47,2.60
2018,04,22,05,48,2.60
2018,04,22,05,49,2.60
2018,04,22,05,50,2.60
2018,04,22,05,51,2.60
2018,04,22,05,52,2.60
2018,04,22,05,53,2.60
2018,04,22,05,54,2.60
2018,04,22,05,55,2.60
2018,04,22,05,56,2.60
2018,04,22,05,57,2.60
2018,04,22,05,58,2.60
2018,04,22,05,59,2.60
2018,04,22,06,00,2.60
2018,04,22,06,01,2.60
2018,04,22,06,02,2.60
2018,04,22,06,03,2.60
2018,04,22,06,04,2.60
2018,04,22,06,05,2.60
2018,04,22,06,06,2.60
2018,04,22,06,07,2.60
2018,04,22,06,08,2.60
2018,04,22,06,09,2.60
2018,04,22,06,10,2.60
2018,04,22,06,11,2.60
2018,04,22,06,12,2.60
2018,04,22,06,13,2.60
2018,04,22,06,14,2.60
2018,04,22,06,15,2.60
2018,04,22,06,16,2.60
2018,04,22,06,17,2.60
2018,04,22,06,18,2.60
2018,04,22,06,19,2.60
2018,04,22,06,20,2.50
2018,04,22,06,21,2.50
2018,04,22,06,22,2.50
2018,04,22,06,23,2.50
2018,04,22,06,24,2.50
2018,04,22,06,25,2.50
2018,04,22,06,26,2.50
2018,04,22,06,27,2.50
2018,04,22,06,28,2.50
2018,04,22,06,29,2.50
2018,04,22,06,30,2.50
2018,04,22,06,31,2.50
2018,04,22,06,32,2.50
2018,04,22,06,33,2.50
2018,04,22,06,34,2.40
2018,04,22,06,35,2.40
2018,04,22,06,36,2.40
2018,04,22,06,37,2.40
2018,04,22,06,38,2.40
2018,04,22,06,39,2.40
2018,04,22,06,40,2.40
2018,04,22,06,41,2.40
2018,04,22,06,42,2.40
2018,04,22,06,43,2.40
2018,04,22,06,44,2.40
2018,04,22,06,45,2.40
2018,04,22,06,46,2.40
2018,04,22,06,47,2.40
2018,04,22,06,48,2.40
2018,04,22,06,49,2.50
2018,04,22,06,50,2.50
2018,04,22,06,51,2.60
2018,04,22,06,52,2.60
2018,04,22,06,53,2.60
2018,04,22,06,54,2.60
2018,04,22,06,55,2.70
2018,04,22,06,56,2.70
2018,04,22,06,57,2.70
2018,04,22,06,58,2.70
2018,04,22,06,59,2.70
2018,04,22,07,00,2.70
2018,04,22,07,01,2.70
2018,04,22,07,02,2.70
2018,04,22,07,03,2.70
2018,04,22,07,04,2.80
2018,04,22,07,05,2.80
2018,04,22,07,06,2.80
2018,04,22,07,07,2.90
2018,04,22,07,08,2.90
2018,04,22,07,09,3.00
2018,04,22,07,10,3.00
2018,04,22,07,11,3.00
2018,04,22,07,12,3.10
2018,04,22,07,13,3.10
2018,04,22,07,14,3.10
2018,04,22,07,15,3.20
2018,04,22,07,16,3.20
2018,04,22,07,17,3.20
2018,04,22,07,18,3.20
2018,04,22,07,19,3.20
2018,04,22,07,20,3.30
2018,04,22,07,21,3.30
2018,04,22,07,22,3.30
2018,04,22,07,23,3.40
2018,04,22,07,24,3.40
2018,04,22,07,25,3.50
2018,04,22,07,26,3.60
2018,04,22,07,27,3.60
2018,04,22,07,28,3.70
2018,04,22,07,29,3.70
2018,04,22,07,30,3.80
2018,04,22,07,31,3.80
2018,04,22,07,32,3.80
2018,04,22,07,33,3.90
2018,04,22,07,34,3.90
2018,04,22,07,35,4.00
2018,04,22,07,36,4.00
2018,04,22,07,37,4.10
2018,04,22,07,38,4.10
2018,04,22,07,39,4.20
2018,04,22,07,40,4.20
2018,04,22,07,41,4.30
2018,04,22,07,42,4.30
2018,04,22,07,43,4.40
2018,04,22,07,44,4.40
2018,04,22,07,45,4.50
2018,04,22,07,46,4.50
2018,04,22,07,47,4.60
2018,04,22,07,48,4.60
2018,04,22,07,49,4.70
2018,04,22,07,50,4.80
2018,04,22,07,51,4.90
2018,04,22,07,52,5.00
2018,04,22,07,53,5.10
2018,04,22,07,54,5.20
2018,04,22,07,55,5.30
2018,04,22,07,56,5.30
2018,04,22,07,57,5.40
2018,04,22,07,58,5.50
2018,04,22,07,59,5.50
2018,04,22,08,00,5.60
2018,04,22,08,01,5.70
2018,04,22,08,02,5.70
2018,04,22,08,03,5.80
2018,04,22,08,04,5.90
2018,04,22,08,05,5.90
2018,04,22,08,06,6.00
2018,04,22,08,07,6.10
2018,04,22,08,08,6.20
2018,04,22,08,09,6.30
2018,04,22,08,10,6.40
2018,04,22,08,11,6.40
2018,04,22,08,12,6.50
2018,04,22,08,13,6.60
2018,04,22,08,14,6.70
2018,04,22,08,15,6.80
2018,04,22,08,16,6.90
2018,04,22,08,17,6.90
2018,04,22,08,18,7.00
2018,04,22,08,19,7.10
2018,04,22,08,20,7.20
2018,04,22,08,21,7.20
2018,04,22,08,22,7.30
2018,04,22,08,23,7.40
2018,04,22,08,24,7.40
2018,04,22,08,25,7.50
2018,04,22,08,26,7.60
2018,04,22,08,27,7.70
2018,04,22,08,28,7.70
2018,04,22,08,29,7.80
2018,04,22,08,30,7.90
2018,04,22,08,31,8.00
2018,04,22,08,32,8.10
2018,04,22,08,33,8.10
2018,04,22,08,34,8.20
2018,04,22,08,35,8.30
2018,04,22,08,36,8.40
2018,04,22,08,37,8.50
2018,04,22,08,38,8.60
2018,04,22,08,39,8.60
2018,04,22,08,40,8.70
2018,04,22,08,41,8.80
2018,04,22,08,42,8.80
2018,04,22,08,43,8.80
2018,04,22,08,44,8.90
2018,04,22,08,45,8.90
2018,04,22,08,46,9.00
2018,04,22,08,47,9.10
2018,04,22,08,48,9.10
2018,04,22,08,49,9.10
2018,04,22,08,50,9.20
2018,04,22,08,51,9.20
2018,04,22,08,52,9.20
2018,04,22,08,53,9.30
2018,04,22,08,54,9.30
2018,04,22,08,55,9.30
2018,04,22,08,56,9.30
2018,04,22,08,57,9.30
2018,04,22,08,58,9.30
2018,04,22,08,59,9.30
2018,04,22,09,00,9.30
2018,04,22,09,01,9.40
2018,04,22,09,02,9.40
2018,04,22,09,03,9.40
2018,04,22,09,04,9.30
2018,04,22,09,05,9.30
2018,04,22,09,06,9.20
2018,04,22,09,07,9.20
2018,04,22,09,08,9.20
2018,04,22,09,09,9.10
2018,04,22,09,10,9.10
2018,04,22,09,11,9.10
2018,04,22,09,12,9.10
2018,04,22,09,13,9.10
2018,04,22,09,14,9.10
2018,04,22,09,15,9.10
2018,04,22,09,16,9.10
2018,04,22,09,17,9.10
2018,04,22,09,18,9.10
2018,04,22,09,19,9.10
2018,04,22,09,20,9.10
2018,04,22,09,21,9.10
2018,04,22,09,22,9.20
2018,04,22,09,23,9.20
2018,04,22,09,24,9.20
2018,04,22,09,25,9.20
2018,04,22,09,26,9.30
2018,04,22,09,27,9.30
2018,04,22,09,28,9.30
2018,04,22,09,29,9.40
2018,04,22,09,30,9.40
2018,04,22,09,31,9.40
2018,04,22,09,32,9.50
2018,04,22,09,33,9.50
2018,04,22,09,34,9.60
2018,04,22,09,35,9.60
2018,04,22,09,36,9.60
2018,04,22,09,37,9.60
2018,04,22,09,38,9.60
2018,04,22,09,39,9.70
2018,04,22,09,40,9.70
2018,04,22,09,41,9.80
2018,04,22,09,42,9.90
2018,04,22,09,43,9.90
2018,04,22,09,44,10.00
2018,04,22,09,45,10.00
2018,04,22,09,46,10.10
2018,04,22,09,47,10.10
2018,04,22,09,48,10.10
2018,04,22,09,49,10.10
2018,04,22,09,50,10.00
2018,04,22,09,51,10.00
2018,04,22,09,52,10.00
2018,04,22,09,53,10.00
2018,04,22,09,54,10.00
2018,04,22,09,55,10.10
2018,04,22,09,56,10.10
2018,04,22,09,57,10.10
2018,04,22,09,58,10.10
2018,04,22,09,59,10.20
2018,04,22,10,00,10.20
2018,04,22,10,01,10.20
2018,04,22,10,02,10.30
2018,04,22,10,03,10.40
2018,04,22,10,04,10.40
2018,04,22,10,05,10.50
2018,04,22,10,06,10.60
2018,04,22,10,07,10.60
2018,04,22,10,08,10.60
2018,04,22,10,09,10.60
2018,04,22,10,10,10.60
2018,04,22,10,11,10.70
2018,04,22,10,12,10.70
2018,04,22,10,13,10.70
2018,04,22,10,14,10.70
2018,04,22,10,15,10.70
2018,04,22,10,16,10.70
2018,04,22,10,17,10.80
2018,04,22,10,18,10.80
2018,04,22,10,19,10.80
2018,04,22,10,20,10.90
2018,04,22,10,21,10.90
2018,04,22,10,22,11.00
2018,04,22,10,23,11.10
2018,04,22,10,24,11.10
2018,04,22,10,25,11.20
2018,04,22,10,26,11.20
2018,04,22,10,27,11.30
2018,04,22,10,28,11.30
2018,04,22,10,29,11.30
2018,04,22,10,30,11.30
2018,04,22,10,31,11.20
2018,04,22,10,32,11.20
2018,04,22,10,33,11.20
2018,04,22,10,34,11.20
2018,04,22,10,35,11.20
2018,04,22,10,36,11.20
2018,04,22,10,37,11.20
2018,04,22,10,38,11.20
2018,04,22,10,39,11.30
2018,04,22,10,40,11.30
2018,04,22,10,41,11.30
2018,04,22,10,42,11.20
2018,04,22,10,43,11.20
2018,04,22,10,44,11.20
2018,04,22,10,45,11.20
2018,04,22,10,46,11.20
2018,04,22,10,47,11.20
2018,04,22,10,48,11.30
2018,04,22,10,49,11.30
2018,04,22,10,50,11.30
2018,04,22,10,51,11.30
2018,04,22,10,52,11.30
2018,04,22,10,53,11.30
2018,04,22,10,54,11.40
2018,04,22,10,55,11.40
2018,04,22,10,56,11.50
2018,04,22,10,57,11.60
2018,04,22,10,58,11.60
2018,04,22,10,59,11.70
2018,04,22,11,00,11.70
2018,04,22,11,01,11.80
2018,04,22,11,02,11.90
2018,04,22,11,03,11.90
2018,04,22,11,04,11.90
2018,04,22,11,05,11.90
2018,04,22,11,06,11.90
2018,04,22,11,07,11.90
2018,04,22,11,08,11.90
2018,04,22,11,09,11.90
2018,04,22,11,10,11.80
2018,04,22,11,11,11.80
2018,04,22,11,12,11.80
2018,04,22,11,13,11.80
2018,04,22,11,14,11.90
2018,04,22,11,15,11.90
2018,04,22,11,16,11.90
2018,04,22,11,17,12.00
2018,04,22,11,18,12.00
2018,04,22,11,19,12.00
2018,04,22,11,20,12.00
2018,04,22,11,21,12.00
2018,04,22,11,22,12.00
2018,04,22,11,23,12.10
2018,04,22,11,24,12.10
2018,04,22,11,25,12.10
2018,04,22,11,26,12.10
2018,04,22,11,27,12.10
2018,04,22,11,28,12.10
2018,04,22,11,29,12.10
2018,04,22,11,30,12.10
2018,04,22,11,31,12.10
2018,04,22,11,32,12.10
2018,04,22,11,33,12.10
2018,04,22,11,34,12.10
2018,04,22,11,35,12.10
2018,04,22,11,36,12.10
2018,04,22,11,37,12.20
2018,04,22,11,38,12.20
2018,04,22,11,39,12.20
2018,04,22,11,40,12.20
2018,04,22,11,41,12.20
2018,04,22,11,42,12.20
2018,04,22,11,43,12.20
2018,04,22,11,44,12.30
2018,04,22,11,45,12.30
2018,04,22,11,46,12.30
2018,04,22,11,47,12.40
2018,04,22,11,48,12.40
2018,04,22,11,49,12.50
2018,04,22,11,50,12.50
2018,04,22,11,51,12.60
2018,04,22,11,52,12.70
2018,04,22,11,53,12.70
2018,04,22,11,54,12.80
2018,04,22,11,55,12.80
2018,04,22,11,56,12.90
2018,04,22,11,57,12.90
2018,04,22,11,58,13.00
2018,04,22,11,59,13.00
2018,04,22,12,00,13.00
2018,04,22,12,01,13.10
2018,04,22,12,02,13.10
2018,04,22,12,03,13.10
2018,04,22,12,04,13.00
2018,04,22,12,05,13.00
2018,04,22,12,06,13.00
2018,04,22,12,07,13.10
2018,04,22,12,08,13.10
2018,04,22,12,09,13.10
2018,04,22,12,10,13.10
2018,04,22,12,11,13.20
2018,04,22,12,12,13.20
2018,04,22,12,13,13.20
2018,04,22,12,14,13.20
2018,04,22,12,15,13.20
2018,04,22,12,16,13.20
2018,04,22,12,17,13.30
2018,04,22,12,18,13.30
2018,04,22,12,19,13.30
2018,04,22,12,20,13.30
2018,04,22,12,21,13.30
2018,04,22,12,22,13.30
2018,04,22,12,23,13.30
2018,04,22,12,24,13.40
2018,04,22,12,25,13.40
2018,04,22,12,26,13.40
2018,04,22,12,27,13.40
2018,04,22,12,28,13.40
2018,04,22,12,29,13.30
2018,04,22,12,30,13.30
2018,04,22,12,31,13.30
2018,04,22,12,32,13.30
2018,04,22,12,33,13.30
2018,04,22,12,34,13.30
2018,04,22,12,35,13.30
2018,04,22,12,36,13.20
2018,04,22,12,37,13.20
2018,04,22,12,38,13.20
2018,04,22,12,39,13.20
2018,04,22,12,40,13.20
2018,04,22,12,41,13.20
2018,04,22,12,42,13.20
2018,04,22,12,43,13.20
2018,04,22,12,44,13.20
2018,04,22,12,45,13.30
2018,04,22,12,46,13.30
2018,04,22,12,47,13.30
2018,04,22,12,48,13.30
2018,04,22,12,49,13.30
2018,04,22,12,50,13.30
2018,04,22,12,51,13.30
2018,04,22,12,52,13.30
2018,04,22,12,53,13.30
2018,04,22,12,54,13.30
2018,04,22,12,55,13.30
2018,04,22,12,56,13.30
2018,04,22,12,57,13.30
2018,04,22,12,58,13.30
2018,04,22,12,59,13.30
2018,04,22,13,00,13.30
2018,04,22,13,01,13.30
2018,04,22,13,02,13.20
2018,04,22,13,03,13.20
2018,04,22,13,04,13.20
2018,04,22,13,05,13.20
2018,04,22,13,06,13.20
2018,04,22,13,07,13.20
2018,04,22,13,08,13.20
2018,04,22,13,09,13.20
2018,04,22,13,10,13.20
2018,04,22,13,11,13.20
2018,04,22,13,12,13.20
2018,04,22,13,13,13.20
2018,04,22,13,14,13.20
2018,04,22,13,15,13.20
2018,04,22,13,16,13.20
2018,04,22,13,17,13.20
2018,04,22,13,18,13.20
2018,04,22,13,19,13.20
2018,04,22,13,20,13.20
2018,04,22,13,21,13.20
2018,04,22,13,22,13.20
2018,04,22,13,23,13.30
2018,04,22,13,24,13.30
2018,04,22,13,25,13.40
2018,04,22,13,26,13.40
2018,04,22,13,27,13.50
2018,04,22,13,28,13.60
2018,04,22,13,29,13.60
2018,04,22,13,30,13.70
2018,04,22,13,31,13.70
2018,04,22,13,32,13.70
2018,04,22,13,33,13.60
2018,04,22,13,34,13.50
2018,04,22,13,35,13.40
2018,04,22,13,36,13.40
2018,04,22,13,37,13.40
2018,04,22,13,38,13.40
2018,04,22,13,39,13.40
2018,04,22,13,40,13.40
2018,04,22,13,41,13.50
2018,04,22,13,42,13.50
2018,04,22,13,43,13.60
2018,04,22,13,44,13.60
2018,04,22,13,45,13.70
2018,04,22,13,46,13.70
2018,04,22,13,47,13.70
2018,04,22,13,48,13.80
2018,04,22,13,49,13.80
2018,04,22,13,50,13.80
2018,04,22,13,51,13.80
2018,04,22,13,52,13.90
2018,04,22,13,53,13.90
2018,04,22,13,54,13.90
2018,04,22,13,55,13.90
2018,04,22,13,56,13.90
2018,04,22,13,57,13.80
2018,04,22,13,58,13.80
2018,04,22,13,59,13.80
2018,04,22,14,00,13.80
2018,04,22,14,01,13.80
2018,04,22,14,02,13.70
2018,04,22,14,03,13.70
2018,04,22,14,04,13.70
2018,04,22,14,05,13.70
2018,04,22,14,06,13.70
2018,04,22,14,07,13.70
2018,04,22,14,08,13.80
2018,04,22,14,09,13.80
2018,04,22,14,10,13.80
2018,04,22,14,11,13.90
2018,04,22,14,12,14.00
2018,04,22,14,13,14.10
2018,04,22,14,14,14.20
2018,04,22,14,15,14.20
2018,04,22,14,16,14.20
2018,04,22,14,17,14.20
2018,04,22,14,18,14.20
2018,04,22,14,19,14.30
2018,04,22,14,20,14.30
2018,04,22,14,21,14.30
2018,04,22,14,22,14.40
2018,04,22,14,23,14.40
2018,04,22,14,24,14.40
2018,04,22,14,25,14.40
2018,04,22,14,26,14.40
2018,04,22,14,27,14.40
2018,04,22,14,28,14.40
2018,04,22,14,29,14.40
2018,04,22,14,30,14.40
2018,04,22,14,31,14.40
2018,04,22,14,32,14.30
2018,04,22,14,33,14.30
2018,04,22,14,34,14.30
2018,04,22,14,35,14.40
2018,04,22,14,36,14.40
2018,04,22,14,37,14.50
2018,04,22,14,38,14.60
2018,04,22,14,39,14.70
2018,04,22,14,40,14.80
2018,04,22,14,41,14.80
2018,04,22,14,42,14.90
2018,04,22,14,43,14.90
2018,04,22,14,44,14.90
2018,04,22,14,45,14.90
2018,04,22,14,46,15.00
2018,04,22,14,47,15.00
2018,04,22,14,48,15.10
2018,04,22,14,49,15.10
2018,04,22,14,50,15.10
2018,04,22,14,51,15.00
2018,04,22,14,52,15.00
2018,04,22,14,53,15.00
2018,04,22,14,54,15.00
2018,04,22,14,55,15.00
2018,04,22,14,56,15.10
2018,04,22,14,57,15.10
2018,04,22,14,58,15.10
2018,04,22,14,59,15.10
2018,04,22,15,00,15.10
2018,04,22,15,01,15.10
2018,04,22,15,02,15.10
2018,04,22,15,03,15.10
2018,04,22,15,04,15.10
2018,04,22,15,05,15.10
2018,04,22,15,06,15.10
2018,04,22,15,07,15.00
2018,04,22,15,08,14.90
2018,04,22,15,09,14.90
2018,04,22,15,10,14.80
2018,04,22,15,11,14.80
2018,04,22,15,12,14.80
2018,04,22,15,13,14.90
2018,04,22,15,14,14.90
2018,04,22,15,15,14.90
2018,04,22,15,16,15.00
2018,04,22,15,17,15.00
2018,04,22,15,18,15.10
2018,04,22,15,19,15.10
2018,04,22,15,20,15.10
2018,04,22,15,21,15.20
2018,04,22,15,22,15.20
2018,04,22,15,23,15.20
2018,04,22,15,24,15.30
2018,04,22,15,25,15.30
2018,04,22,15,26,15.30
2018,04,22,15,27,15.30
2018,04,22,15,28,15.30
2018,04,22,15,29,15.30
2018,04,22,15,30,15.30
2018,04,22,15,31,15.30
2018,04,22,15,32,15.30
2018,04,22,15,33,15.30
2018,04,22,15,34,15.20
2018,04,22,15,35,15.30
2018,04,22,15,36,15.30
2018,04,22,15,37,15.30
2018,04,22,15,38,15.40
2018,04,22,15,39,15.40
2018,04,22,15,40,15.50
2018,04,22,15,41,15.50
2018,04,22,15,42,15.60
2018,04,22,15,43,15.60
2018,04,22,15,44,15.60
2018,04,22,15,45,15.60
2018,04,22,15,46,15.60
2018,04,22,15,47,15.60
2018,04,22,15,48,15.70
2018,04,22,15,49,15.70
2018,04,22,15,50,15.80
2018,04,22,15,51,15.90
2018,04,22,15,52,15.90
2018,04,22,15,53,15.90
2018,04,22,15,54,16.00
2018,04,22,15,55,16.00
2018,04,22,15,56,16.00
2018,04,22,15,57,16.10
2018,04,22,15,58,16.10
2018,04,22,15,59,16.10
2018,04,22,16,00,16.10
2018,04,22,16,01,16.10
2018,04,22,16,02,16.00
2018,04,22,16,03,15.90
2018,04,22,16,04,15.80
2018,04,22,16,05,15.70
2018,04,22,16,06,15.70
2018,04,22,16,07,15.60
2018,04,22,16,08,15.60
2018,04,22,16,09,15.60
2018,04,22,16,10,15.60
2018,04,22,16,11,15.70
2018,04,22,16,12,15.60
2018,04,22,16,13,15.60
2018,04,22,16,14,15.50
2018,04,22,16,15,15.50
2018,04,22,16,16,15.50
2018,04,22,16,17,15.50
2018,04,22,16,18,15.50
2018,04,22,16,19,15.50
2018,04,22,16,20,15.50
2018,04,22,16,21,15.60
2018,04,22,16,22,15.60
2018,04,22,16,23,15.60
2018,04,22,16,24,15.60
2018,04,22,16,25,15.70
2018,04,22,16,26,15.70
2018,04,22,16,27,15.70
2018,04,22,16,28,15.70
2018,04,22,16,29,15.70
2018,04,22,16,30,15.80
2018,04,22,16,31,15.80
2018,04,22,16,32,15.80
2018,04,22,16,33,15.70
2018,04,22,16,34,15.70
2018,04,22,16,35,15.60
2018,04,22,16,36,15.50
2018,04,22,16,37,15.50
2018,04,22,16,38,15.50
2018,04,22,16,39,15.40
2018,04,22,16,40,15.40
2018,04,22,16,41,15.40
2018,04,22,16,42,15.40
2018,04,22,16,43,15.40
2018,04,22,16,44,15.50
2018,04,22,16,45,15.50
2018,04,22,16,46,15.50
2018,04,22,16,47,15.50
2018,04,22,16,48,15.40
2018,04,22,16,49,15.40
2018,04,22,16,50,15.40
2018,04,22,16,51,15.40
2018,04,22,16,52,15.40
2018,04,22,16,53,15.40
2018,04,22,16,54,15.40
2018,04,22,16,55,15.40
2018,04,22,16,56,15.40
2018,04,22,16,57,15.40
2018,04,22,16,58,15.40
2018,04,22,16,59,15.40
2018,04,22,17,00,15.50
2018,04,22,17,01,15.60
2018,04,22,17,02,15.60
2018,04,22,17,03,15.60
2018,04,22,17,04,15.60
2018,04,22,17,05,15.60
2018,04,22,17,06,15.70
2018,04,22,17,07,15.70
2018,04,22,17,08,15.80
2018,04,22,17,09,15.80
2018,04,22,17,10,15.80
2018,04,22,17,11,15.70
2018,04,22,17,12,15.70
2018,04,22,17,13,15.70
2018,04,22,17,14,15.70
2018,04,22,17,15,15.70
2018,04,22,17,16,15.70
2018,04,22,17,17,15.70
2018,04,22,17,18,15.70
2018,04,22,17,19,15.70
2018,04,22,17,20,15.80
2018,04,22,17,21,15.80
2018,04,22,17,22,15.80
2018,04,22,17,23,15.80
2018,04,22,17,24,15.90
2018,04,22,17,25,15.90
2018,04,22,17,26,15.90
2018,04,22,17,27,15.90
2018,04,22,17,28,15.90
2018,04,22,17,29,15.90
2018,04,22,17,30,15.90
2018,04,22,17,31,16.00
2018,04,22,17,32,16.00
2018,04,22,17,33,16.00
2018,04,22,17,34,16.00
2018,04,22,17,35,16.00
2018,04,22,17,36,16.00
2018,04,22,17,37,15.90
2018,04,22,17,38,15.90
2018,04,22,17,39,15.80
2018,04,22,17,40,15.80
2018,04,22,17,41,15.80
2018,04,22,17,42,15.80
2018,04,22,17,43,15.80
2018,04,22,17,44,15.70
2018,04,22,17,45,15.70
2018,04,22,17,46,15.70